"Time","Temp","Dewpoint","Humidity","Pressure","Direction","Speed","Gust","Precip","PrecipRate"
"00:04:56","50.1","45.5","84","29.90","229","0.6","2.3","0.00","0.00"
"00:09:59","50.2","45.6","84","29.90","229","0.3","1.2","0.00","0.00"
"00:14:52","50.1","45.4","83.8","29.90","229","0","0","0.00","0.00"
"00:19:57","50","45.4","84","29.90","229","0","0","0.00","0.00"
"00:24:56","49.9","45.5","84.5","29.90","229","0","0","0.00","0.00"
"00:29:57","49.8","45.5","85","29.90","229","0","0","0.00","0.00"
"00:34:59","49.7","45.4","85","29.90","229","0","0","0.00","0.00"
"00:39:49","49.7","45.5","85.2","29.90","229","0.5","1.2","0.00","0.00"
"00:43:58","49.7","45.4","85","29.90","229","0","1.2","0.00","0.00"
"00:48:56","49.7","45.1","84.1","29.91","229","0","0","0.00","0.00"
"00:54:57","49.5","45","84.3","29.91","229","0","0","0.00","0.00"
"00:59:58","49.3","44.8","84.2","29.91","229","0","0","0.00","0.00"
"01:04:59","49.2","44.9","85","29.91","229","0","0","0.00","0.00"
"01:09:39","49.2","45","85.2","29.91","229","0","0","0.00","0.00"
"01:14:56","49.1","45.1","86","29.91","229","0","0","0.00","0.00"
"01:19:49","49.1","45.1","85.9","29.91","229","0","0","0.00","0.00"
"01:24:37","49.1","44.8","85","29.91","229","0","0","0.00","0.00"
"01:29:57","49.2","44.9","85","29.91","229","0","2","0.00","0.00"
"01:34:57","49.4","45.2","85.3","29.91","229","0","1.2","0.00","0.00"
"01:39:59","49.6","45.4","85.5","29.91","229","0","0","0.00","0.00"
"01:44:59","49.6","45.5","85.6","29.91","229","0","0","0.00","0.00"
"01:49:59","49.6","45.6","85.9","29.91","229","0","1.2","0.00","0.00"
"01:54:59","49.6","45.3","85","29.91","229","0","1.2","0.00","0.00"
"01:59:58","49.7","44.8","83.2","29.91","229","0.3","2.3","0.00","0.00"
"02:04:57","50","44.8","82.6","29.90","229","0.2","2.3","0.00","0.00"
"02:09:59","50.1","44.8","82","29.90","229","0","1.2","0.00","0.00"
"02:14:56","50.2","44.9","82","29.90","229","0","0","0.00","0.00"
"02:19:29","50.3","45","82.1","29.90","229","0","0","0.00","0.00"
"02:24:56","50.3","45.2","82.8","29.90","229","0","0","0.00","0.00"
"02:29:55","50.3","44.9","81.6","29.90","229","0","0","0.00","0.00"
"02:34:59","50.4","45.2","82.4","29.89","229","0","1","0.00","0.00"
"02:39:58","50.3","45.3","83","29.89","229","0","1.2","0.00","0.00"
"02:44:57","50.2","45.2","83","29.89","229","0","0","0.00","0.00"
"02:49:57","50.2","45.2","83","29.89","229","0","0","0.00","0.00"
"02:54:57","50.2","44.9","82.1","29.89","229","0","0","0.00","0.00"
"02:59:56","50.2","44.8","81.4","29.89","229","0.1","1.2","0.00","0.00"
"03:04:59","50.2","44.9","82","29.89","229","0","1.2","0.00","0.00"
"03:09:59","49.9","44.6","82","29.89","229","0","0","0.00","0.00"
"03:14:47","49.6","44.4","82.1","29.89","229","0.4","2.3","0.00","0.00"
"03:19:59","49","44.4","83.8","29.88","229","1.5","2.3","0.00","0.00"
"03:24:57","48.6","44.3","84.7","29.88","229","1.7","2.3","0.00","0.00"
"03:29:57","48.3","44.3","85.9","29.88","229","0.8","2.3","0.00","0.00"
"03:34:22","48.1","44.4","87","29.88","229","0","0","0.00","0.00"
"03:39:49","47.9","44.3","87.1","29.88","229","0","0","0.00","0.00"
"03:44:58","47.6","44.2","88","29.88","229","0","0","0.00","0.00"
"03:49:56","47.3","44","88.1","29.88","229","0","0","0.00","0.00"
"03:54:58","47.1","44","89","29.88","229","0","0","0.00","0.00"
"03:59:59","46.9","43.8","89","29.88","229","0","1.2","0.00","0.00"
"04:04:59","46.7","43.7","89.3","29.88","229","0","1.2","0.00","0.00"
"04:09:31","46.6","43.5","89.2","29.88","229","0","0","0.00","0.00"
"04:14:53","46.4","43.3","89","29.88","229","0","0","0.00","0.00"
"04:18:56","46.2","43.4","90","29.88","229","0","0","0.00","0.00"
"04:24:59","46.1","43","89","29.88","229","0","0","0.00","0.00"
"04:29:58","45.9","42.8","89","29.88","229","0","0","0.00","0.00"
"04:34:28","45.7","42.7","89.2","29.88","229","0","0","0.00","0.00"
"04:39:58","45.4","42.6","90","29.88","229","0","0","0.00","0.00"
"04:44:56","45.2","42.4","90","29.88","229","0.1","1.2","0.00","0.00"
"04:49:59","45.1","42.4","90.3","29.88","229","0.4","2.3","0.00","0.00"
"04:54:54","45","42.8","91.8","29.88","229","1.6","2.3","0.00","0.00"
"04:59:40","45","42.8","92","29.88","232","1.8","3.5","0.00","0.00"
"05:04:51","45.1","42.9","92","29.88","232","1.3","2.3","0.00","0.00"
"05:09:57","45.1","42.9","92","29.88","232","0","1.2","0.00","0.00"
"05:14:57","45","42.8","92","29.88","232","0.1","1.2","0.00","0.00"
"05:19:43","45","42.8","92","29.87","232","0.5","1.2","0.00","0.00"
"05:24:58","45","42.8","92","29.87","232","0","1.2","0.00","0.00"
"05:29:58","44.9","42.5","91.3","29.87","232","0.1","1.2","0.00","0.00"
"05:34:56","44.8","42.3","91","29.87","232","0","0","0.00","0.00"
"05:39:57","44.6","42.4","91.8","29.87","232","0","1.2","0.00","0.00"
"05:44:56","44.5","42.3","92","29.87","232","0","0","0.00","0.00"
"05:49:59","44.4","42.2","92","29.87","232","0","0","0.00","0.00"
"05:54:58","44.3","42.1","92","29.87","232","0","0","0.00","0.00"
"05:59:56","44.3","42.1","92","29.88","232","0","0","0.00","0.00"
"06:04:59","44.2","42","92","29.88","232","0","0","0.00","0.00"
"06:09:57","44","41.8","92","29.88","232","0","0","0.00","0.00"
"06:14:55","43.9","41.8","92.3","29.88","232","0","0","0.00","0.00"
"06:19:58","43.8","41.9","93.1","29.88","232","0.1","1","0.00","0.00"
"06:24:57","44","42.4","94","29.88","232","0.8","2","0.00","0.00"
"06:29:55","44.2","42.6","94","29.88","232","0","1.2","0.00","0.00"
"06:34:54","44.4","42.8","94","29.88","232","0.2","1.2","0.00","0.00"
"06:39:56","44.5","42.9","94","29.88","232","0.4","2.3","0.00","0.00"
"06:44:59","44.6","43","94","29.89","232","0.7","2.3","0.00","0.00"
"06:49:59","44.7","43","93.6","29.89","232","0.9","2.3","0.00","0.00"
"06:54:58","44.7","42.8","93","29.89","232","0.2","2.3","0.00","0.00"
"06:59:56","44.7","42.8","93","29.89","232","0","0","0.00","0.00"
"07:04:59","44.8","42.9","93","29.89","232","0","0","0.00","0.00"
"07:09:56","45","43.1","93.1","29.89","232","0","0","0.00","0.00"
"07:14:56","45.2","43.6","94","29.89","232","0","0","0.00","0.00"
"07:18:47","45.3","43.7","94","29.89","232","0","0","0.00","0.00"
"07:24:48","45.4","43.8","94","29.89","232","0","0","0.00","0.00"
"07:29:58","45.6","43.7","93.1","29.89","232","0","0","0.00","0.00"
"07:34:57","45.8","44","93.4","29.89","232","0.1","1.2","0.00","0.00"
"07:39:41","46","44.1","93","29.89","232","0","1.2","0.00","0.00"
"07:44:59","46.2","44.3","93","29.89","232","0","0","0.00","0.00"
"07:49:56","46.3","44.5","93.1","29.89","232","0","0","0.00","0.00"
"07:54:41","46.6","44.9","93.6","29.89","232","0.9","2.3","0.00","0.00"
"07:59:56","46.9","45","93","29.89","232","0.2","2.3","0.00","0.00"
"08:04:38","47.2","45.3","93","29.89","232","0.1","1.2","0.00","0.00"
"08:09:59","47.5","45.4","92.4","29.89","232","0","0","0.00","0.00"
"08:14:59","47.6","45.4","92","29.89","232","0","0","0.00","0.00"
"08:19:58","47.7","45.4","91.6","29.89","232","0","0","0.00","0.00"
"08:24:56","47.9","45.4","91.1","29.89","232","0.5","2.3","0.00","0.00"
"08:29:25","48.1","45.4","90.3","29.90","232","1.1","2.3","0.00","0.00"
"08:34:57","48.2","45.4","90","29.90","232","0","1.2","0.00","0.00"
"08:39:59","48.3","45.5","90","29.90","232","0.2","1.2","0.00","0.00"
"08:44:57","48.6","45.8","90","29.90","232","0.2","1.2","0.00","0.00"
"08:49:59","49","46.2","90","29.89","232","0.9","3.5","0.00","0.00"
"08:54:57","49.2","46.2","89.2","29.89","232","0","1.2","0.00","0.00"
"08:59:59","49.5","46.5","89.3","29.89","232","0","1","0.00","0.00"
"09:04:57","49.9","46.6","88.3","29.89","226","0.2","2.3","0.00","0.00"
"09:09:58","50.2","47.1","89","29.89","226","0","0","0.00","0.00"
"09:14:54","50.5","47","87.9","29.89","163","0.6","3.5","0.00","0.00"
"09:19:52","50.9","46.9","86.3","29.89","183","1","6","0.00","0.00"
"09:24:59","51.3","47","85.1","29.89","160","1.9","5","0.00","0.00"
"09:29:56","51.7","47.1","84.4","29.89","170","2.3","5","0.00","0.00"
"09:34:58","52","47.2","83.6","29.89","154","0.8","3.5","0.00","0.00"
"09:39:58","52.1","47.2","83.3","29.89","176","1.1","4","0.00","0.00"
"09:44:56","52.2","47.5","83.8","29.89","178","1","4","0.00","0.00"
"09:49:57","52.3","47.5","83.5","29.89","167","2.3","5","0.00","0.00"
"09:54:45","52.4","47.7","84","29.89","167","2.2","5","0.00","0.00"
"09:59:59","52.5","47.8","84","29.89","200","2.6","5.8","0.00","0.00"
"10:04:53","52.5","48","84.5","29.89","223","2.7","5","0.00","0.00"
"10:09:58","52.6","48.2","85","29.89","244","3.2","6","0.00","0.00"
"10:14:58","52.7","48.3","85","29.90","266","1.9","4","0.00","0.00"
"10:19:59","52.9","48.5","84.9","29.90","252","1.5","3.5","0.00","0.00"
"10:24:58","53.2","49.1","86","29.90","223","1.6","4","0.00","0.00"
"10:29:56","53.6","49.2","85","29.90","201","2.2","4","0.00","0.00"
"10:34:42","53.7","49","83.8","29.90","192","1.7","5","0.00","0.00"
"10:39:57","53.9","48.4","81.9","29.90","193","1.6","3.5","0.00","0.00"
"10:44:59","53.9","48.5","82.1","29.90","193","0.7","2.3","0.00","0.00"
"10:49:38","54","48.7","82.3","29.89","193","0.1","2.3","0.00","0.00"
"10:54:57","54.3","49.1","82.8","29.89","193","1.2","3","0.00","0.00"
"10:59:59","54.6","49.2","82","29.89","224","1","3.5","0.00","0.00"
"11:04:58","54.9","48.8","80.1","29.89","242","1.8","4","0.00","0.00"
"11:09:50","55.2","49.5","81","29.89","213","1.9","4","0.00","0.00"
"11:14:59","55.5","49.2","79.4","29.89","216","2","4","0.00","0.00"
"11:19:52","55.6","49.5","79.9","29.89","220","2.1","3.5","0.00","0.00"
"11:24:58","56","50.1","80.4","29.89","228","2.4","4","0.00","0.00"
"11:29:59","56.5","49.9","78.6","29.89","218","2.9","5","0.00","0.00"
"11:34:40","56.9","50.2","78.1","29.89","195","3.2","7","0.00","0.00"
"11:39:56","57","49.7","76.6","29.89","173","2.7","6","0.00","0.00"
"11:44:57","57","49.4","75.6","29.89","179","2.7","6","0.00","0.00"
"11:49:59","56.8","49.1","75.4","29.89","201","3.1","5.8","0.00","0.00"
"11:54:32","56.5","49.1","76.2","29.89","221","2.3","4","0.00","0.00"
"11:59:58","56.6","49.5","77.1","29.89","192","2.2","5","0.00","0.00"
"12:04:56","56.9","50","77.5","29.89","197","2.5","5","0.00","0.00"
"12:09:56","57.8","51.5","79.6","29.89","196","1.9","4","0.00","0.00"
"12:14:56","58.7","50.8","75","29.89","157","2.5","6","0.00","0.00"
"12:19:46","59.1","49","69.3","29.89","214","3.6","9.2","0.00","0.00"
"12:24:56","59.3","48.3","66.9","29.89","187","3.8","9.2","0.00","0.00"
"12:29:58","59.1","47.4","65.2","29.89","201","4.1","7","0.00","0.00"
"12:34:47","59","47.6","65.9","29.88","199","3","6.9","0.00","0.00"
"12:39:59","59","48.2","67.3","29.88","190","3.3","7","0.00","0.00"
"12:44:57","59.1","47.7","66","29.88","151","2.9","6.9","0.00","0.00"
"12:48:56","59.3","47.2","64.2","29.88","164","3","9.2","0.00","0.00"
"12:54:57","59.5","47.2","63.7","29.88","149","3","6","0.00","0.00"
"12:59:58","59.5","46.5","62.2","29.88","138","3.4","7","0.00","0.00"
"13:04:59","59.5","47.4","64.2","29.88","121","3.4","6.9","0.00","0.00"
"13:09:59","59.6","47","62.9","29.88","198","3.1","7","0.00","0.00"
"13:14:59","59.7","46.7","62.1","29.88","172","3.2","6","0.00","0.00"
"13:19:56","59.7","46.3","61","29.87","133","3.5","7","0.00","0.00"
"13:24:57","59.9","46.9","62.2","29.87","122","3.5","10.4","0.00","0.00"
"13:29:44","60.2","46.7","61","29.87","121","3.3","6","0.00","0.00"
"13:34:57","60.4","46.4","60","29.87","109","3.9","6","0.00","0.00"
"13:39:20","60.5","46.6","60.3","29.87","120","3.5","6","0.00","0.00"
"13:44:59","61.2","47","59.7","29.87","204","2.8","9.2","0.00","0.00"
"13:49:52","61.6","48.1","61.1","29.87","178","2","4.6","0.00","0.00"
"13:54:58","62.3","48.3","60.1","29.87","162","3.5","6","0.00","0.00"
"13:59:59","62.5","48","59","29.87","178","3.2","7","0.00","0.00"
"14:04:56","62.5","47.8","58.6","29.86","197","3.9","9.2","0.00","0.00"
"14:09:28","62.5","47.4","57.9","29.86","135","2.1","6","0.00","0.00"
"14:14:40","62.9","48.5","59.3","29.86","196","2.8","5.8","0.00","0.00"
"14:19:56","63.3","48.2","57.9","29.86","202","2.8","10.4","0.00","0.00"
"14:24:58","63.5","48.4","57.8","29.86","150","2.5","9.2","0.00","0.00"
"14:29:59","63.7","48.7","58.2","29.86","196","4","8.1","0.00","0.00"
"14:34:57","63.9","48.8","57.9","29.86","201","3","6.9","0.00","0.00"
"14:39:35","64.1","47.3","54.6","29.86","200","2.7","5","0.00","0.00"
"14:44:57","64.2","47.3","54.2","29.86","149","3.2","6","0.00","0.00"
"14:49:56","64.2","47.9","55.5","29.86","144","2.9","10","0.00","0.00"
"14:54:52","63.9","48.2","56.8","29.86","207","4.3","10.4","0.00","0.00"
"14:59:42","64.2","49.2","58.3","29.86","170","2","5.8","0.00","0.00"
"15:04:56","65","47.9","54.1","29.85","156","2.1","5","0.00","0.00"
"15:09:56","65.2","47.1","52","29.85","111","3.5","7","0.00","0.00"
"15:14:58","64.9","46.2","50.8","29.85","90","2.2","4.6","0.00","0.00"
"15:19:59","65.2","46.9","51.8","29.84","130","2.2","6","0.00","0.00"
"15:24:52","65.5","48","53.1","29.84","119","2.5","6","0.00","0.00"
"15:29:46","65.8","48.6","53.8","29.84","103","2.1","5","0.00","0.00"
"15:34:59","66","47.7","51.7","29.83","159","2.2","6","0.00","0.00"
"15:39:58","66.4","49.3","54.3","29.83","144","3.1","8.1","0.00","0.00"
"15:44:56","66.5","48.9","53.2","29.83","173","3.7","7","0.00","0.00"
"15:49:40","66.5","48.3","52","29.83","150","3.6","7","0.00","0.00"
"15:54:57","66.3","48.4","52.6","29.83","109","2.3","9","0.00","0.00"
"15:59:57","65.6","49","55","29.83","112","3.8","9.2","0.00","0.00"
"16:04:59","65.4","48.9","55.2","29.83","169","2","5.8","0.00","0.00"
"16:09:59","65.8","48.9","54.5","29.83","151","2.2","6","0.00","0.00"
"16:14:59","66.1","48.7","53.4","29.83","164","1.7","8","0.00","0.00"
"16:19:59","66","47.9","52.2","29.83","125","4.1","9.2","0.00","0.00"
"16:24:59","65.2","47.7","53.1","29.83","104","3.9","6","0.00","0.00"
"16:29:37","64.7","47.7","54.1","29.83","126","3.3","6","0.00","0.00"
"16:34:46","64.6","47.6","54","29.83","206","3","9","0.00","0.00"
"16:39:57","65.3","48.9","55.4","29.83","197","4.8","9.2","0.00","0.00"
"16:44:57","65.6","47.9","52.8","29.83","202","5.5","11.5","0.00","0.00"
"16:49:46","65.5","47.3","51.9","29.83","107","3.4","7","0.00","0.00"
"16:54:59","65.3","47.9","53.3","29.83","114","2.3","8","0.00","0.00"
"16:59:59","65.5","48.7","54.6","29.83","190","4.2","11","0.00","0.00"
"17:04:56","65.7","49.2","55.2","29.83","153","4.9","13","0.00","0.00"
"17:09:56","65.6","49.2","55.3","29.83","163","3.5","10.4","0.00","0.00"
"17:14:22","65.7","48.4","53.5","29.83","135","3.6","6","0.00","0.00"
"17:19:51","65.5","49","55.2","29.83","156","3.5","10.4","0.00","0.00"
"17:24:56","65.2","49","55.7","29.83","146","3.9","7","0.00","0.00"
"17:29:56","65.1","49.1","56.2","29.84","177","4.2","10.4","0.00","0.00"
"17:34:25","65","49.1","56.3","29.84","203","4.5","9.2","0.00","0.00"
"17:39:56","64.8","49","56.5","29.84","188","4.7","11.5","0.00","0.00"
"17:44:56","64.7","48.5","55.6","29.85","139","3","6","0.00","0.00"
"17:49:56","64.7","48.7","56.1","29.85","187","4.4","9.2","0.00","0.00"
"17:54:56","64.6","48.6","56.3","29.85","182","4.1","9.2","0.00","0.00"
"17:59:56","64.6","48.6","56.1","29.86","163","3.3","7","0.00","0.00"
"18:04:57","64.5","48.2","55.6","29.86","197","4.6","10.4","0.00","0.00"
"18:09:54","64.2","47.6","54.7","29.86","202","4.3","7","0.00","0.00"
"18:14:56","64.1","47.7","55.1","29.86","184","2.5","6","0.00","0.00"
"18:19:56","64.1","47.9","55.7","29.86","176","3.7","7","0.00","0.00"
"18:24:56","63.8","47.6","55.6","29.86","163","3.6","7","0.00","0.00"
"18:29:36","63.5","47.4","55.7","29.86","154","2.8","6.9","0.00","0.00"
"18:34:57","63.3","47.7","56.9","29.86","158","2.4","6","0.00","0.00"
"18:39:56","62.9","47.6","57.3","29.86","139","3.8","9.2","0.00","0.00"
"18:44:56","62.7","47.9","58.4","29.86","164","2.9","6","0.00","0.00"
"18:49:56","62.4","47.6","58.5","29.86","159","3.9","9","0.00","0.00"
"18:54:57","62","47.2","58.5","29.86","155","2.8","10.4","0.00","0.00"
"18:59:53","61.7","47.1","58.8","29.86","141","3","10.4","0.00","0.00"
"19:04:58","61.5","47.1","59.3","29.86","147","2.5","5","0.00","0.00"
"19:09:58","61.2","47.1","59.7","29.86","163","3.1","8.1","0.00","0.00"
"19:14:57","61","47.1","60.3","29.86","187","2.5","6","0.00","0.00"
"19:19:24","60.7","47.2","61","29.86","176","3.2","6","0.00","0.00"
"19:24:37","60.4","47","61.2","29.86","162","2.4","4","0.00","0.00"
"19:29:58","60.3","46.8","61","29.87","185","2","4","0.00","0.00"
"19:34:59","60","46.6","61.1","29.87","165","1.5","4","0.00","0.00"
"19:39:56","59.9","46.4","61.2","29.87","169","2.4","5","0.00","0.00"
"19:44:57","59.7","46.5","61.6","29.87","155","2.2","5","0.00","0.00"
"19:49:58","59.6","46.6","62","29.87","156","1.4","4","0.00","0.00"
"19:54:56","59.5","46.5","62","29.87","171","1.2","4","0.00","0.00"
"19:59:59","59.2","46.3","62.2","29.88","173","1","4","0.00","0.00"
"20:04:49","58.8","46.3","63.1","29.88","174","1.2","3.5","0.00","0.00"
"20:09:58","58.4","46.2","63.9","29.88","169","1.6","5","0.00","0.00"
"20:14:38","58.2","46.2","64.2","29.88","164","1.7","4.6","0.00","0.00"
"20:19:32","57.9","46.1","64.6","29.88","166","1.2","4","0.00","0.00"
"20:24:58","57.7","46.1","65.3","29.88","149","2.3","4","0.00","0.00"
"20:29:51","57.6","46.3","66","29.89","157","3.2","7","0.00","0.00"
"20:34:37","57.5","46.2","66","29.89","173","2.7","6.9","0.00","0.00"
"20:39:58","57.5","46.4","66.6","29.89","155","2.6","5","0.00","0.00"
"20:44:47","57.2","46.4","67.2","29.90","190","4.4","9.2","0.00","0.00"
"20:49:33","56.9","46.5","68.3","29.90","186","2.6","5.8","0.00","0.00"
"20:54:56","56.5","46.4","69","29.90","182","2.4","6","0.00","0.00"
"20:59:58","56.3","46.4","69.2","29.91","172","1.7","4","0.00","0.00"
"21:04:53","56.1","46.4","70","29.91","180","2.3","4","0.00","0.00"
"21:09:41","55.8","46.2","70.1","29.91","185","2.2","5","0.00","0.00"
"21:14:50","55.4","46.2","71","29.91","190","2","5","0.00","0.00"
"21:19:59","55.1","46","71.1","29.91","196","2.4","4.6","0.00","0.00"
"21:24:57","54.9","45.9","71.6","29.91","183","1.5","4","0.00","0.00"
"21:29:59","54.7","45.8","71.7","29.92","181","1.5","3.5","0.00","0.00"
"21:34:58","54.6","45.6","71.5","29.92","182","1.3","4","0.00","0.00"
"21:39:50","54.5","45.7","72","29.92","179","1.6","4","0.00","0.00"
"21:44:59","54.5","45.7","72","29.92","143","2.1","4","0.00","0.00"
"21:49:59","54.3","45.6","72","29.92","186","1.6","4","0.00","0.00"
"21:54:45","54.2","45.6","72.6","29.92","178","1.3","3.5","0.00","0.00"
"21:59:57","54","45.4","72.8","29.93","166","1","4","0.00","0.00"
"22:04:59","53.8","45.3","73","29.93","170","1.3","3.5","0.00","0.00"
"22:09:56","53.6","45.4","73.7","29.93","169","0.5","3.5","0.00","0.00"
"22:14:56","53.4","45.3","74","29.93","170","0.6","3","0.00","0.00"
"22:19:58","53.2","45.2","74.3","29.93","172","0.7","3.5","0.00","0.00"
"22:24:48","53","45.3","75","29.93","172","1.3","3.5","0.00","0.00"
"22:29:58","52.9","45.2","75","29.94","146","0.8","4","0.00","0.00"
"22:34:56","52.7","45","75","29.94","144","0.3","1.2","0.00","0.00"
"22:39:57","52.6","45.1","75.6","29.94","144","0.3","1.2","0.00","0.00"
"22:44:59","52.5","45.2","76","29.94","144","0.3","3.5","0.00","0.00"
"22:49:57","52.3","45","76","29.93","144","0.1","1.2","0.00","0.00"
"22:53:47","52.1","44.9","76.5","29.93","144","0","0","0.00","0.00"
"22:59:58","51.8","44.8","77","29.94","144","0.3","2","0.00","0.00"
"23:04:48","51.5","44.7","77.3","29.94","144","0.2","2.3","0.00","0.00"
"23:09:57","51.2","44.6","78.2","29.94","144","0.5","2.3","0.00","0.00"
"23:14:57","50.9","44.5","78.7","29.94","145","0.4","2.3","0.00","0.00"
"23:19:56","50.8","44.9","80","29.94","145","0.3","2.3","0.00","0.00"
"23:24:58","50.7","44.8","80","29.94","145","0.3","2.3","0.00","0.00"
"23:29:40","50.7","44.8","80","29.94","145","0","0","0.00","0.00"
"23:34:59","50.7","44.8","80.2","29.94","149","0.3","3.5","0.00","0.00"
"23:39:56","50.5","44.8","80.5","29.94","149","0","1.2","0.00","0.00"
"23:44:59","50.3","44.7","81","29.94","149","0.1","3","0.00","0.00"
"23:49:41","50.1","44.6","81.1","29.94","150","0.2","2","0.00","0.00"
"23:53:35","49.8","44.5","82","29.94","150","0.1","1.2","0.00","0.00"
"23:59:57","49.6","44.5","82.7","29.94","150","0","1.2","0.00","0.00"
